Weather in Kotelnikovo

Russia / Kursk Oblast     51°17′53″N   36°18′41″E
temp.,
°C
wind,
m/s
gust,
m/s
humid.,
%
clouds,
%
prec.,
mm/h
press.,
hPa
HPBL,
m
15 may, sat
sat1500:00+14sw229065 0.6 100924
03:00+12ssw34900 0.6 101054
06:00+12ssw3892100 0.0 1010170
09:00+16ssw57805 0.0 1011495
12:00+20ssw695958 0.1 10111524
15:00+21sw79554 0.2 10112166
18:00+18sw4976100 0.4 1012304
21:00+14ssw33870 0.4 101325
16 may, sun
sun1600:00+13ssw22875 0.0 101311
03:00+12sse228599 0.0 101310
06:00+14sse238328 0.0 101354
09:00+19s236849 0.0 1014407
12:00+22s345742 0.0 10141352
15:00+23sse2351100 0.0 10131815
18:00+22e23625 0.0 1012423
21:00+16ne45735 0.0 101268
17 may, mon
mon1700:00+14ne41085100 0.2 1011160
03:00+14ene4119452 0.3 1010206
06:00+15e5128746 0.0 1009270
09:00+20ese613676 0.0 1008482
12:00+24ese816575 0.0 10071258
15:00+24se71162100 0.0 10061254
18:00+22se7127096 0.0 1006661
21:00+18ese5148031 0.0 1006325
18 may, tue
tue1800:00+17se5128692 0.0 1006275
03:00+15sse41195100 0.0 1006308
06:00+14sse4109296 0.0 1006358
09:00+17sse71080100 0.0 1006718
12:00+18s7878100 0.1 1006957
15:00+19s797799 2.1 10061033
18:00+18sse610855 0.7 1005783
21:00+14sse51492100 2.7 1006475
19 may, wed
wed1900:00+14s61296100 1.3 1005601
03:00+12sw4898100 1.4 1007380
06:00+11sw4995100 0.0 1009440
09:00+14sw57785 0.0 1010822
12:00+17sw686237 0.0 10101603
15:00+18sw7105524 0.1 10102181
18:00+17sw61069100 0.6 1010876
21:00+11sw3786100 0.9 1012127